When you browse on this site, cookies collect data to enhance your experience and personalize the content and advertising you see.
Visit our Privacy Policy to learn more. By continuing to use the site, you agree to this use of cookies and data.
  • In Austria
  • List of Countries
  • For 7 days
  • Water Temperature
  • Weather Map
  • News
  • Weather Widgets
  • user-avatar
    Login

    Hourly Weather Ituni

    Today, 27 January, Monday

    Time Temperature Precipitation Wind Pressure Humidity
    00:00 +24°C° 0 mm 1 mps 754 mmHg 97%
    01:00 +24°C° 0 mm 1 mps 753 mmHg 98%
    02:00 +24°C° 0 mm 1 mps 753 mmHg 99%
    03:00 +24°C° 0.1 mm 1 mps 753 mmHg 99%
    04:00 +22°C° 0.1 mm 0 mps 753 mmHg 99%
    05:00 +22°C° 0.1 mm 0 mps 753 mmHg 99%
    06:00 +23°C° 0 mm 0 mps 753 mmHg 95%
    07:00 +24°C° 0 mm 0 mps 754 mmHg 91%
    08:00 +25°C° 0 mm 0 mps 754 mmHg 87%
    09:00 +28°C° 0.1 mm 1 mps 754 mmHg 79%
    10:00 +30°C° 0.1 mm 1 mps 754 mmHg 71%
    11:00 +32°C° 0.1 mm 1 mps 754 mmHg 63%
    12:00 +31°C° 0.8 mm 1 mps 754 mmHg 67%
    13:00 +31°C° 0.8 mm 1 mps 753 mmHg 72%
    14:00 +31°C° 0.8 mm 1 mps 752 mmHg 76%
    15:00 +30°C° 1.2 mm 1 mps 752 mmHg 81%
    16:00 +29°C° 1.2 mm 1 mps 752 mmHg 86%
    17:00 +28°C° 1.2 mm 1 mps 751 mmHg 91%
    18:00 +27°C° 0 mm 1 mps 752 mmHg 93%
    19:00 +26°C° 0 mm 1 mps 752 mmHg 95%
    20:00 +26°C° 0 mm 1 mps 753 mmHg 96%
    21:00 +25°C° 0 mm 1 mps 753 mmHg 97%
    22:00 +25°C° 0 mm 1 mps 754 mmHg 98%
    23:00 +25°C° 0 mm 1 mps 754 mmHg 98%

    Tomorrow, 28 January, Tuesday

    Time Temperature Precipitation Wind Pressure Humidity
    00:00 +25°C° 0 mm 1 mps 753 mmHg 99%
    01:00 +22°C° 0 mm 0 mps 753 mmHg 99%
    02:00 +22°C° 0 mm 0 mps 752 mmHg 99%
    03:00 +22°C° 0 mm 0 mps 752 mmHg 99%
    04:00 +22°C° 0 mm 0 mps 752 mmHg 99%
    05:00 +22°C° 0 mm 0 mps 752 mmHg 98%
    06:00 +23°C° 0.1 mm 0 mps 753 mmHg 96%
    07:00 +26°C° 0.1 mm 1 mps 753 mmHg 93%
    08:00 +27°C° 0.1 mm 1 mps 754 mmHg 90%
    09:00 +29°C° 0 mm 1 mps 754 mmHg 79%
    10:00 +31°C° 0 mm 1 mps 754 mmHg 67%
    11:00 +32°C° 0 mm 2 mps 754 mmHg 56%
    12:00 +34°C° 0 mm 2 mps 753 mmHg 55%
    13:00 +34°C° 0 mm 2 mps 752 mmHg 54%
    14:00 +34°C° 0 mm 2 mps 751 mmHg 53%
    15:00 +34°C° 0 mm 2 mps 751 mmHg 56%
    16:00 +32°C° 0 mm 2 mps 750 mmHg 60%
    17:00 +31°C° 0 mm 2 mps 750 mmHg 63%
    18:00 +30°C° 0 mm 2 mps 750 mmHg 69%
    19:00 +28°C° 0 mm 2 mps 751 mmHg 75%
    20:00 +27°C° 0 mm 2 mps 751 mmHg 82%
    21:00 +26°C° 0 mm 1 mps 752 mmHg 85%
    22:00 +25°C° 0 mm 1 mps 752 mmHg 88%
    23:00 +25°C° 0 mm 1 mps 752 mmHg 91%

    Day after tomorrow, 29 January, Wednesday

    Time Temperature Precipitation Wind Pressure Humidity
    00:00 +25°C° 0 mm 1 mps 752 mmHg 93%
    01:00 +24°C° 0 mm 1 mps 752 mmHg 94%
    02:00 +24°C° 0 mm 1 mps 751 mmHg 96%
    03:00 +24°C° 0 mm 1 mps 751 mmHg 96%
    04:00 +24°C° 0 mm 1 mps 752 mmHg 97%
    05:00 +22°C° 0 mm 0 mps 752 mmHg 97%
    06:00 +25°C° 0.1 mm 1 mps 752 mmHg 93%
    07:00 +26°C° 0.1 mm 1 mps 753 mmHg 89%
    08:00 +27°C° 0.1 mm 1 mps 753 mmHg 85%
    09:00 +28°C° 0.2 mm 2 mps 753 mmHg 80%
    10:00 +29°C° 0.2 mm 2 mps 753 mmHg 74%
    11:00 +30°C° 0.2 mm 2 mps 753 mmHg 68%
    12:00 +31°C° 0.1 mm 2 mps 753 mmHg 62%
    13:00 +34°C° 0.1 mm 2 mps 752 mmHg 56%
    14:00 +35°C° 0.1 mm 3 mps 751 mmHg 50%
    15:00 +34°C° 0 mm 2 mps 751 mmHg 54%
    16:00 +32°C° 0 mm 2 mps 751 mmHg 57%
    17:00 +31°C° 0 mm 2 mps 750 mmHg 60%
    18:00 +30°C° 0 mm 2 mps 751 mmHg 67%
    19:00 +28°C° 0 mm 2 mps 751 mmHg 74%
    20:00 +27°C° 0 mm 2 mps 752 mmHg 80%
    21:00 +26°C° 0 mm 1 mps 752 mmHg 85%
    22:00 +25°C° 0 mm 1 mps 752 mmHg 89%
    23:00 +24°C° 0 mm 1 mps 753 mmHg 93%

    30 January, Thursday

    Time Temperature Precipitation Wind Pressure Humidity
    00:00 +24°C° 0 mm 1 mps 752 mmHg 95%
    01:00 +24°C° 0 mm 1 mps 752 mmHg 96%
    02:00 +24°C° 0 mm 1 mps 752 mmHg 98%
    03:00 +22°C° 0.1 mm 0 mps 752 mmHg 97%
    04:00 +22°C° 0.1 mm 0 mps 752 mmHg 96%
    05:00 +22°C° 0.1 mm 0 mps 752 mmHg 95%
    06:00 +23°C° 0.1 mm 0 mps 753 mmHg 93%
    07:00 +25°C° 0.1 mm 1 mps 753 mmHg 92%
    08:00 +26°C° 0.1 mm 1 mps 754 mmHg 91%
    09:00 +27°C° 0.2 mm 1 mps 754 mmHg 82%
    10:00 +29°C° 0.2 mm 2 mps 754 mmHg 73%
    11:00 +31°C° 0.2 mm 2 mps 754 mmHg 63%
    12:00 +31°C° 0.1 mm 2 mps 753 mmHg 62%
    13:00 +31°C° 0.1 mm 2 mps 753 mmHg 60%
    14:00 +32°C° 0.1 mm 2 mps 752 mmHg 59%
    15:00 +31°C° 0.1 mm 2 mps 752 mmHg 60%
    16:00 +31°C° 0.1 mm 2 mps 751 mmHg 61%
    17:00 +30°C° 0.1 mm 2 mps 751 mmHg 62%
    18:00 +29°C° 0 mm 2 mps 752 mmHg 68%
    19:00 +27°C° 0 mm 2 mps 752 mmHg 74%
    20:00 +26°C° 0 mm 2 mps 753 mmHg 80%
    21:00 +25°C° 0 mm 1 mps 753 mmHg 84%
    22:00 +25°C° 0 mm 1 mps 753 mmHg 88%
    23:00 +24°C° 0 mm 1 mps 753 mmHg 91%

    31 January, Friday

    Time Temperature Precipitation Wind Pressure Humidity
    00:00 +24°C° 0 mm 1 mps 753 mmHg 93%
    01:00 +23°C° 0 mm 1 mps 753 mmHg 95%
    02:00 +21°C° 0 mm 0 mps 752 mmHg 97%
    03:00 +21°C° 0 mm 0 mps 752 mmHg 97%
    04:00 +21°C° 0 mm 0 mps 752 mmHg 98%
    05:00 +21°C° 0 mm 0 mps 752 mmHg 98%
    06:00 +22°C° 0 mm 0 mps 753 mmHg 94%
    07:00 +23°C° 0 mm 0 mps 754 mmHg 89%
    08:00 +24°C° 0 mm 0 mps 754 mmHg 84%
    09:00 +28°C° 0.3 mm 1 mps 754 mmHg 79%
    10:00 +29°C° 0.3 mm 1 mps 754 mmHg 73%
    11:00 +30°C° 0.3 mm 2 mps 754 mmHg 67%
    12:00 +31°C° 0.2 mm 2 mps 754 mmHg 64%
    13:00 +32°C° 0.2 mm 2 mps 753 mmHg 60%
    14:00 +33°C° 0.2 mm 3 mps 752 mmHg 57%
    15:00 +33°C° 0.1 mm 3 mps 752 mmHg 60%
    16:00 +31°C° 0.1 mm 2 mps 751 mmHg 62%
    17:00 +30°C° 0.1 mm 2 mps 751 mmHg 64%
    18:00 +29°C° 0 mm 2 mps 752 mmHg 70%
    19:00 +27°C° 0 mm 2 mps 752 mmHg 76%
    20:00 +26°C° 0 mm 1 mps 753 mmHg 82%
    21:00 +25°C° 0 mm 1 mps 753 mmHg 86%
    22:00 +25°C° 0 mm 1 mps 754 mmHg 90%
    23:00 +24°C° 0 mm 1 mps 754 mmHg 93%

    1 February, Saturday

    Time Temperature Precipitation Wind Pressure Humidity
    00:00 +24°C° 0 mm 1 mps 753 mmHg 95%
    01:00 +24°C° 0 mm 1 mps 753 mmHg 96%
    02:00 +21°C° 0 mm 0 mps 753 mmHg 98%
    03:00 +22°C° 0.1 mm 0 mps 753 mmHg 98%
    04:00 +22°C° 0.1 mm 0 mps 753 mmHg 98%
    05:00 +22°C° 0.1 mm 0 mps 752 mmHg 98%
    06:00 +22°C° 0.3 mm 0 mps 753 mmHg 96%
    07:00 +23°C° 0.3 mm 0 mps 754 mmHg 95%
    08:00 +26°C° 0.3 mm 1 mps 754 mmHg 93%
    09:00 +27°C° 0.6 mm 1 mps 754 mmHg 89%
    10:00 +28°C° 0.6 mm 1 mps 754 mmHg 85%
    11:00 +29°C° 0.6 mm 1 mps 754 mmHg 81%
    12:00 +29°C° 0.6 mm 1 mps 753 mmHg 80%
    13:00 +29°C° 0.6 mm 2 mps 753 mmHg 78%
    14:00 +29°C° 0.6 mm 2 mps 752 mmHg 77%
    15:00 +29°C° 0.3 mm 2 mps 752 mmHg 75%
    16:00 +29°C° 0.3 mm 2 mps 751 mmHg 74%
    17:00 +29°C° 0.3 mm 2 mps 751 mmHg 73%
    18:00 +28°C° 0 mm 2 mps 752 mmHg 77%
    19:00 +26°C° 0 mm 2 mps 752 mmHg 81%
    20:00 +25°C° 0 mm 1 mps 753 mmHg 85%
    21:00 +25°C° 0 mm 1 mps 753 mmHg 88%
    22:00 +24°C° 0 mm 1 mps 753 mmHg 91%
    23:00 +24°C° 0 mm 1 mps 753 mmHg 94%
    Show more